User: anonymous   Login
Location: Unspecified
(0.0000°N, 0.0000°E)
Time: 20:49:38
(UTC+00:00)
Language:

STARLINK-30798 - Orbit

View from above orbital plane
View from above orbital plane
View from above satellite
View from above satellite

Ground track
Ground track

The orbit is defined by the following mean orbital elements,

1 58196U          26145.13105076 +.00000000 +00000-0 -56145-4 0 00009
2 58196  43.0032  71.8822 0001745 271.1636  88.9016 15.27586588    01
Epoch (UTC): 25 May 2026 03:08:42
Eccentricity: 0.0001745
inclination: 43.0032°
perigee height: 482 km
apogee height: 484 km
right ascension of ascending node: 71.8822°
argument of perigee: 271.1636°
revolutions per day: 15.27586588
mean anomaly at epoch: 88.9016°

The dashed part of the orbit path shows where the satellite is in the earth's shadow,  

DLR